"Pseudo-MPEC" for P10XLLe

Created 2020 Mar 31 10:07:07 UT using Find_Orb

Click here for an explanation of pseudo-MPECs

 
 Astrometry: 
     P10XLLe  C2020 03 219:RYNglH^_`#FsaRkaQ\\Zg-yfAstrometry=1Zpj/hW!6o;QsqQF51
     P10XLLe  C2020 03 21F3)$Dp`*'g)y.F0hpQ^1-OHZS?1Rn08hp?rQ`!*n:7rnh1Yu::CtF51
     P10XLLe  C2020 03 21m=_mISfZkT*dM6%N@sP50#)yhcN\#L0JColH^m8e2e!7nAdxVuU:F51
     P10XLLe ^C2020 03 22.53440715 55 57.830-22 38 08.58   ~3MLb 21.27GVNEOCP568
     P10XLLe ^C2020 03 22.53559415 55 57.706-22 38 08.13   ~3MLb 21.32GVNEOCP568
     P10XLLe ^C2020 03 22.53677215 55 57.582-22 38 07.76   ~3MLb 21.47GVNEOCP568
     P10XLLe ^C2020 03 22.53794915 55 57.450-22 38 07.46   ~3MLb 21.32GVNEOCP568
     P10XLLe ^C2020 03 22.53913115 55 57.336-22 38 07.03   ~3MLb 21.13GVNEOCP568
     P10XLLe ^C2020 03 22.54030915 55 57.212-22 38 06.58   ~3MLb 21.32GVNEOCP568
     P10XLLe  C2020 03 22NwWredacted;VY4(i^K^V`:x.Sc@rd1@`u?pJNdxLAU+U7OncgJ[F51
     P10XLLe  C2020 03 22NeY6rwVDaA?!^rgf\?8Xtx3fM'On,dvKw2wtBA6c:7Rcm?21Xa/EF51
     P10XLLe  C2020 03 22M6'V+3@'8=:5l\0(K?#]MB]_T;click=:'.A]9.WtFuh[hereg%lF51
     P10XLLe ^C2020 03 24.60479715 52 16.096-22 26 05.97   ~3OI7 21.22GVNEOCP568
     P10XLLe ^C2020 03 24.60597815 52 15.964-22 26 05.60   ~3OI7 21.41GVNEOCP568
     P10XLLe ^C2020 03 24.60715415 52 15.830-22 26 05.10   ~3OI7 21.24GVNEOCP568
     P10XLLe 1C2020 03 27I%qh+t%Xqbq%WrvrS*m7CnrHC`^de*3D!VOO[aFx3for%U_'8,u)Q62
     P10XLLe 1C2020 03 27*wxyu]`\AsB)0reqrc^RrCT6:O?x=TYmqqSS83[0C-OoYlS1dQ?gQ62
     P10XLLe bC2020 03 294G,2M$g-q8$JEp*XQ:V8CKr5$]TUWLBkt)#!-Db$6@N[7XnBMJ[pL01
     P10XLLe bC2020 03 29u-`SDnc!t_lHexplanationhJJuHfy_-'@x:4@g8!7gbQA-y*btiL01

Station data:
(568) Mauna Kea  (N19.826116 W155.472200)  US/Hawaii.
(F51) Pan-STARRS 1, Haleakala  (N20.707235 W156.255910)  US/Hawaii.
   Observers N. Primak, A. Schultz, S. Watters, J. Thiel, T. Goggia. Measurer
   PS1 Science Consortium. 1.8-m Ritchey-Chrétien + CCD.
(L01) Višnjan Observatory, Tičan  (N45.290900 E13.749300)  Croatia.
   Observers K. Korlević, E. Pettarin. Measurer E. Pettarin. 1.0-m f/2.9
   reflector + CCD.
(Q62) iTelescope Observatory, Siding Spring  (S31.273289 E149.064420)
   Australia/NSW. 0.50-m f/6.8 astrograph + CCD + focal reducer, 0.70-m f/6.6
   astrograph + CCD.

Orbital elements:  P10XLLe
   Perihelion 2019 Nov 22.224247 +/- 259 TT =  5:22:54 (JD 2458809.724247)
Epoch 2020 Mar 29.0 TT = JDT 2458937.5   Ju: 0.2242           AutoNEOCP
M   9.15242678 +/- 43               (J2000 ecliptic)
n   0.07162882 +/- 0.0673           Peri.  318.43551 +/- 58
a   5.74218931 +/- 3.69             Node   209.18722 +/- 1.0
e   0.4338255 +/- 0.189             Incl.  174.04619 +/- 0.54
P  13.76                   H 16.0   G  0.15   U 10.9  
q 3.25108102 +/- 0.647    Q 8.23329761 +/- 4.24
From 19 observations 2020 Mar. 21-29; mean residual 0".28
Residuals in arcseconds: 
200321 F51  .14-  .44+    200322 568  .05-  .00     200324 568  .25+  .07-    
200321 F51  .27+  .04-    200322 568  .04-  .06+    200327 Q62  .32-  .43-    
200321 F51  .21+  .17-    200322 F51  .10-  .05+    200327 Q62  .53-  .03+    
200322 568  .13-  .02+    200322 F51  .09-  .01-    200329 L01  .89+  .35-    
200322 568  .11-  .08+    200322 F51  .07-  .07-    200329 L01  .39-  .75+    
200322 568  .10-  .05+    200324 568  .31+  .08-    
200322 568  .20-  .04-    200324 568  .30+  .14-    

Ephemerides (geocentric):
Date (UTC) HH   RA              Dec         delta   r     elong  mag " sig PA
---- -- -- --  -------------   -----------  ------ ------ -----  --- ---- ---
2020 03 31 10  15 38 53.781   -21 39 28.59  2.5859 3.3512 133.3 21.4 .946  97
2020 03 31 11  15 38 48.539   -21 39 09.40  2.5853 3.3513 133.4 21.4 .983  97
2020 03 31 12  15 38 43.294   -21 38 50.19  2.5847 3.3514 133.5 21.4 1.02  97
2020 03 31 13  15 38 38.045   -21 38 30.96  2.5842 3.3514 133.5 21.4 1.06  98
2020 03 31 14  15 38 32.792   -21 38 11.69  2.5836 3.3515 133.6 21.4 1.10  98
2020 03 31 15  15 38 27.535   -21 37 52.40  2.5830 3.3515 133.6 21.4 1.13  98
2020 03 31 16  15 38 22.274   -21 37 33.09  2.5825 3.3516 133.7 21.4 1.17  98
2020 03 31 17  15 38 17.009   -21 37 13.74  2.5819 3.3517 133.8 21.4 1.21  98
2020 03 31 18  15 38 11.740   -21 36 54.38  2.5814 3.3517 133.8 21.4 1.25  99
2020 03 31 19  15 38 06.468   -21 36 34.98  2.5808 3.3518 133.9 21.4 1.30  99
2020 03 31 20  15 38 01.191   -21 36 15.56  2.5802 3.3519 134.0 21.4 1.34  99
2020 03 31 21  15 37 55.911   -21 35 56.11  2.5797 3.3519 134.0 21.4 1.38  99
2020 03 31 22  15 37 50.627   -21 35 36.64  2.5791 3.3520 134.1 21.4 1.42  99
2020 03 31 23  15 37 45.339   -21 35 17.13  2.5785 3.3520 134.1 21.4 1.47  99
2020 04 01 00  15 37 40.047   -21 34 57.61  2.5780 3.3521 134.2 21.4 1.51  99
2020 04 01 01  15 37 34.751   -21 34 38.05  2.5774 3.3522 134.3 21.4 1.56  99
2020 04 01 02  15 37 29.451   -21 34 18.47  2.5769 3.3522 134.3 21.4 1.60 100
2020 04 01 03  15 37 24.147   -21 33 58.86  2.5763 3.3523 134.4 21.4 1.65 100
2020 04 01 04  15 37 18.840   -21 33 39.23  2.5758 3.3524 134.5 21.4 1.70 100
2020 04 01 05  15 37 13.529   -21 33 19.57  2.5752 3.3524 134.5 21.4 1.75 100
2020 04 01 06  15 37 08.213   -21 32 59.88  2.5746 3.3525 134.6 21.4 1.80 100
2020 04 01 07  15 37 02.894   -21 32 40.17  2.5741 3.3525 134.6 21.4 1.85 100
2020 04 01 08  15 36 57.571   -21 32 20.43  2.5735 3.3526 134.7 21.4 1.90 100
2020 04 01 09  15 36 52.245   -21 32 00.66  2.5730 3.3527 134.8 21.4 1.95 100
2020 04 01 10  15 36 46.914   -21 31 40.87  2.5724 3.3527 134.8 21.4 2.00 100
2020 04 01 11  15 36 41.580   -21 31 21.05  2.5719 3.3528 134.9 21.4 2.05 100
2020 04 01 12  15 36 36.241   -21 31 01.20  2.5713 3.3529 134.9 21.4 2.10 100
2020 04 01 13  15 36 30.899   -21 30 41.32  2.5708 3.3529 135.0 21.4 2.16 101
2020 04 01 14  15 36 25.553   -21 30 21.42  2.5702 3.3530 135.1 21.4 2.21 101
2020 04 01 15  15 36 20.204   -21 30 01.50  2.5697 3.3530 135.1 21.4 2.27 101
2020 04 01 16  15 36 14.850   -21 29 41.54  2.5691 3.3531 135.2 21.4 2.33 101
2020 04 01 17  15 36 09.493   -21 29 21.56  2.5686 3.3532 135.3 21.4 2.38 101
2020 04 01 18  15 36 04.131   -21 29 01.55  2.5680 3.3532 135.3 21.4 2.44 101
2020 04 01 19  15 35 58.766   -21 28 41.52  2.5675 3.3533 135.4 21.4 2.50 101
2020 04 01 20  15 35 53.398   -21 28 21.46  2.5669 3.3534 135.5 21.4 2.56 101
2020 04 01 21  15 35 48.025   -21 28 01.37  2.5664 3.3534 135.5 21.4 2.62 101
2020 04 01 22  15 35 42.648   -21 27 41.25  2.5659 3.3535 135.6 21.4 2.68 101
2020 04 01 23  15 35 37.268   -21 27 21.11  2.5653 3.3536 135.6 21.4 2.74 101
2020 04 02 00  15 35 31.884   -21 27 00.94  2.5648 3.3536 135.7 21.4 2.80 101
2020 04 02 01  15 35 26.496   -21 26 40.75  2.5642 3.3537 135.8 21.4 2.87 101
2020 04 02 02  15 35 21.105   -21 26 20.52  2.5637 3.3537 135.8 21.4 2.93 101
2020 04 02 03  15 35 15.709   -21 26 00.27  2.5631 3.3538 135.9 21.4 3.00 101
2020 04 02 04  15 35 10.310   -21 25 40.00  2.5626 3.3539 136.0 21.4 3.06 101
2020 04 02 05  15 35 04.907   -21 25 19.69  2.5621 3.3539 136.0 21.4 3.13 102
2020 04 02 06  15 34 59.501   -21 24 59.36  2.5615 3.3540 136.1 21.4 3.19 102
2020 04 02 07  15 34 54.090   -21 24 39.01  2.5610 3.3541 136.1 21.4 3.26 102
2020 04 02 08  15 34 48.676   -21 24 18.62  2.5604 3.3541 136.2 21.4 3.33 102
2020 04 02 09  15 34 43.258   -21 23 58.21  2.5599 3.3542 136.3 21.4 3.40 102